This is the latest recevied weather packets stored in our database for station/object AI5BL. If no packets are shown the sender has not sent any weather packets the latest 10 day(s).
| Time | Temp. | Humidity | Pressure | Rain* | Wind** | Luminosity | Snow |
|---|---|---|---|---|---|---|---|
| 1777646198 | 15° C | 95% | 1017 hPa | 0 mm | - | 63 W/m² | - |
| 1777645896 | 15° C | 96% | 1017 hPa | 0 mm | - | 72 W/m² | - |
| 1777645593 | 15° C | 96% | 1016.8 hPa | 0 mm | - | 98 W/m² | - |
| 1777645289 | 15° C | 96% | 1017 hPa | 0 mm | - | 90 W/m² | - |
| 1777644985 | 15° C | 97% | 1017 hPa | 0 mm | - | 75 W/m² | - |
| 1777644683 | 15° C | 97% | 1016.9 hPa | 0 mm | - | 67 W/m² | - |
| 1777644378 | 15° C | 97% | 1017 hPa | 0 mm | - | 58 W/m² | - |
| 1777644075 | 15° C | 96% | 1017.1 hPa | 0 mm | - | 54 W/m² | - |
| 1777643772 | 15° C | 96% | 1016.9 hPa | 0 mm | - | 55 W/m² | - |
| 1777643470 | 15° C | 97% | 1017 hPa | 0 mm | - | 58 W/m² | - |
| 1777643166 | 15° C | 97% | 1016.8 hPa | 0 mm | - | 56 W/m² | - |
| 1777642862 | 14.44° C | 96% | 1016.8 hPa | 0 mm | - | 63 W/m² | - |
| 1777642560 | 15° C | 96% | 1016.6 hPa | 0 mm | - | 71 W/m² | - |
| 1777642256 | 14.44° C | 96% | 1016.9 hPa | 0 mm | - | 70 W/m² | - |
| 1777641953 | 14.44° C | 96% | 1016.8 hPa | 0 mm | - | 75 W/m² | - |
| 1777641649 | 14.44° C | 95% | 1016.7 hPa | 0 mm | - | 54 W/m² | - |
| 1777641344 | 14.44° C | 96% | 1016.3 hPa | 0 mm | - | 47 W/m² | - |
| 1777641039 | 14.44° C | 96% | 1016.1 hPa | 0 mm | - | 58 W/m² | - |
| 1777640736 | 14.44° C | 96% | 1016 hPa | 0 mm | - | 57 W/m² | - |
| 1777640433 | 13.89° C | 95% | 1016 hPa | 0 mm | - | 42 W/m² | - |
| 1777640130 | 13.89° C | 96% | 1016.1 hPa | 0 mm | - | 40 W/m² | - |
| 1777639826 | 13.89° C | 96% | 1015.7 hPa | 0 mm | - | 44 W/m² | - |
| 1777639524 | 13.89° C | 96% | 1015.7 hPa | 0 mm | - | 45 W/m² | - |
| 1777639221 | 13.89° C | 96% | 1015.6 hPa | 0 mm | - | 39 W/m² | - |
| 1777638917 | 13.89° C | 97% | 1015.7 hPa | 0 mm | - | 33 W/m² | - |
* Rain latest hour (hover to see other rain measurements)
** Current wind speed in m/s (hover to see current wind gust speed)